(173019) = 2003 BM78 = 2006 PT29

Discovered at Palomar on 2006-08-12 by NEAT.

Orbit

Orbit type: Main Belt

Note: WebGL enabled browser required.

epoch2023-09-13.0
epoch JD2460200.5
perihelion date2023-05-06.15714
perihelion JD2460070.65714
argument of perihelion (°)73.33042
ascending node (°)315.31430
inclination (°)14.53637
eccentricity0.2375459
perihelion distance (AU)2.3267882
Tisserand w.r.t. Jupiter3.1
ΔV w.r.t. Earth (km/sec)10.6
semimajor axis (AU)3.0517091
mean anomaly (°)24.00530
mean daily motion (°/day)0.18487970
aphelion distance (AU)3.777
period (years)5.33
P-vector [x]0.85604406
P-vector [y]0.32417188
P-vector [z]0.40261788
Q-vector [x]-0.48583433
Q-vector [y]0.77056147
Q-vector [z]0.41255306
absolute magnitude15.4
phase slope0.15
uncertainty0
referenceMPEC 2024-B145
observations used559
oppositions13
arc length (days)8174
first opposition used2001
last opposition used2024
residual rms (arc-secs)0.66
perturbers coarse indicatorM-v
perturbers precise indicator003Ek
first observation date used2001-09-10.0
last observation date used2024-01-27.0
computer nameMPCLINUX
JD of orbit computation2456760.677469
perihelion JD uncertainty (days)7.7719E-05
argument of perihelion uncertainty (°)3.4234E-05
ascending node uncertainty (°)2.7340E-05
inclination uncertainty (°)6.4114E-06
eccentricity uncertainty 9.3164E-08
perihelion distance uncertainty (AU)2.7314E-07
Minimum Orbit Intersection Distances (in AU)
for orbit epoch: 2460200.5, reference: E2024-BE5
Mercury2.01095
Venus1.64456
Earth1.37834
Mars0.9993
Jupiter2.01241
Saturn5.98148
Uranus14.8965
Neptune27.0814

Observations

567 total observations over interval: 2001 09 10.26458 – 2024 01 27.416394
These data are available for download (format description).

Date (UT) J2000 RA J2000 Dec Magn Location Ref
2001 09 10.26458 23 36 11.70 +14 32 47.4 18.8   704 – Lincoln Laboratory ETS, New Mexico MPS 178644
2001 09 10.27850 23 36 10.94 +14 32 49.0 18.9   704 – Lincoln Laboratory ETS, New Mexico MPS 178644
2001 09 10.29243 23 36 10.13 +14 32 50.8 19.0   704 – Lincoln Laboratory ETS, New Mexico MPS 178644
2001 09 10.30636 23 36 09.37 +14 32 52.0 18.7   704 – Lincoln Laboratory ETS, New Mexico MPS 178644
2001 09 10.32028 23 36 08.58 +14 32 53.9 18.9   704 – Lincoln Laboratory ETS, New Mexico MPS 178644
2001 09 18.263250 23 28 41.425 +14 42 10.89 18.82 V 645 – Apache Point-Sloan Digital Sky Survey MPS 178644
2001 09 18.266722 23 28 41.221 +14 42 10.99 19.67   645 – Apache Point-Sloan Digital Sky Survey MPS 178644
2001 09 23.33198 23 23 55.80 +14 41 30.8 20.1   608 – Haleakala-AMOS MPS 178644
2001 09 23.34276 23 23 55.20 +14 41 30.8 19.2   608 – Haleakala-AMOS MPS 178644
2001 09 23.35343 23 23 54.60 +14 41 30.4 19.2   608 – Haleakala-AMOS MPS 178644
2001 09 29.17515 23 18 41.37 +14 35 13.6 18.7   644 – Palomar Mountain/NEAT MPS 178644
2001 09 29.19644 23 18 40.25 +14 35 11.7 18.6   644 – Palomar Mountain/NEAT MPS 178644
2001 09 29.21758 23 18 39.10 +14 35 10.0 18.3   644 – Palomar Mountain/NEAT MPS 178644
2001 10 17.16924 23 06 22.59 +13 52 27.9 19.0   704 – Lincoln Laboratory ETS, New Mexico MPS 178644
2001 10 17.20210 23 06 21.54 +13 52 21.6 19.5   704 – Lincoln Laboratory ETS, New Mexico MPS 178644
2001 10 17.21758 23 06 21.12 +13 52 18.6 19.2   704 – Lincoln Laboratory ETS, New Mexico MPS 178644
2001 10 17.23301 23 06 20.61 +13 52 16.1 19.8   704 – Lincoln Laboratory ETS, New Mexico MPS 178644
2001 11 17.13857 23 06 22.53 +12 50 43.0 19.5   704 – Lincoln Laboratory ETS, New Mexico MPS 178644
2001 11 17.15300 23 06 22.88 +12 50 41.7 19.8   704 – Lincoln Laboratory ETS, New Mexico MPS 178644
2001 11 17.17205 23 06 23.43 +12 50 43.9 20.0   704 – Lincoln Laboratory ETS, New Mexico MPS 178644
2001 11 17.18646 23 06 23.72 +12 50 41.2 19.4   704 – Lincoln Laboratory ETS, New Mexico MPS 178644
2003 01 31.26088 08 43 15.73 +20 54 28.3 19.2   644 – Palomar Mountain/NEAT MPS 71976
2003 01 31.32416 08 43 11.78 +20 54 26.3 19.6   644 – Palomar Mountain/NEAT MPS 71976
2003 01 31.39313 08 43 07.51 +20 54 23.7 19.2   644 – Palomar Mountain/NEAT MPS 71976
2003 02 01.31300 08 42 11.90 +20 53 50.9 19.2   704 – Lincoln Laboratory ETS, New Mexico MPS 71976
2003 02 01.32818 08 42 10.97 +20 53 50.1 19.5   704 – Lincoln Laboratory ETS, New Mexico MPS 71976
2003 02 01.37386 08 42 08.14 +20 53 48.7 19.7   704 – Lincoln Laboratory ETS, New Mexico MPS 71976
2006 08 12.25728 21 00 07.24 -17 13 20.9 18.8 R 644 – Palomar Mountain/NEAT MPS 176121
2006 08 12.27797 21 00 05.99 -17 13 18.9 18.8 R 644 – Palomar Mountain/NEAT MPS 176121
2006 08 12.29921 21 00 04.72 -17 13 16.6 19.0 R 644 – Palomar Mountain/NEAT MPS 176121
2006 08 14.16952 20 58 14.82 -17 10 23.5 19.0 R 644 – Palomar Mountain/NEAT MPS 177125
2006 08 14.18990 20 58 13.58 -17 10 21.9 18.7 R 644 – Palomar Mountain/NEAT MPS 177125
2006 08 14.21027 20 58 12.37 -17 10 20.0 18.4 R 644 – Palomar Mountain/NEAT MPS 177125
2006 08 20.22838 20 52 28.61 -17 00 02.2 18.8 R 644 – Palomar Mountain/NEAT MPS 176121
2006 08 20.24868 20 52 27.44 -17 00 00.0 18.7 R 644 – Palomar Mountain/NEAT MPS 176121
2006 08 20.26905 20 52 26.28 -16 59 57.8 18.7 R 644 – Palomar Mountain/NEAT MPS 176121
2006 09 25.17413 20 32 59.38 -15 19 52.7 20.1 V G96 – Mt. Lemmon Survey MPS 181162
2006 09 25.18214 20 32 59.35 -15 19 50.6 20.3 V G96 – Mt. Lemmon Survey MPS 181162
2006 09 25.19058 20 32 59.28 -15 19 48.9 20.6 V G96 – Mt. Lemmon Survey MPS 181162
2006 09 25.19905 20 32 59.24 -15 19 47.2 20.2 V G96 – Mt. Lemmon Survey MPS 181162
2007 11 15.35957 07 02 11.08 +38 46 46.8 19.4 r 699 – Lowell Observatory-LONEOS MPS 226902
2007 11 15.38533 07 02 10.75 +38 46 49.0 19.6 r 699 – Lowell Observatory-LONEOS MPS 226902
2007 11 15.41117 07 02 10.52 +38 46 51.1 19.8 r 699 – Lowell Observatory-LONEOS MPS 226902
2007 11 15.43701 07 02 10.20 +38 46 54.3 19.5 r 699 – Lowell Observatory-LONEOS MPS 226902
2007 12 03.38823 06 52 59.60 +39 05 34.0 19.0   704 – Lincoln Laboratory ETS, New Mexico MPS 229836
2007 12 03.40095 06 52 58.95 +39 05 34.7 19.1   704 – Lincoln Laboratory ETS, New Mexico MPS 229836
2007 12 03.41369 06 52 58.53 +39 05 33.7 19.5   704 – Lincoln Laboratory ETS, New Mexico MPS 229836
2007 12 03.42658 06 52 57.59 +39 05 35.3 20.4   704 – Lincoln Laboratory ETS, New Mexico MPS 229836
2007 12 03.43951 06 52 57.14 +39 05 34.3 19.4   704 – Lincoln Laboratory ETS, New Mexico MPS 229836
2007 12 07.51797 06 49 22.38 +39 04 59.7 18.5 R D29 – Purple Mountain Observatory, XuYi Station MPS 230931
2007 12 07.53593 06 49 21.45 +39 05 00.2 18.7 R D29 – Purple Mountain Observatory, XuYi Station MPS 230931
2007 12 07.55378 06 49 20.42 +39 05 00.0 18.8 R D29 – Purple Mountain Observatory, XuYi Station MPS 230931
2007 12 07.56738 06 49 19.66 +39 04 59.7 18.8 R D29 – Purple Mountain Observatory, XuYi Station MPS 230931
2007 12 18.26280 06 38 04.63 +38 50 31.8 18.4   704 – Lincoln Laboratory ETS, New Mexico MPS 232529
2007 12 18.27585 06 38 03.71 +38 50 29.5 18.9   704 – Lincoln Laboratory ETS, New Mexico MPS 232529
2007 12 18.28876 06 38 02.82 +38 50 29.1 18.8   704 – Lincoln Laboratory ETS, New Mexico MPS 232529
2007 12 18.30169 06 38 01.93 +38 50 26.8 18.6   704 – Lincoln Laboratory ETS, New Mexico MPS 232529
2007 12 18.31467 06 38 01.00 +38 50 24.6 18.7   704 – Lincoln Laboratory ETS, New Mexico MPS 232529
2008 01 11.26592 06 11 14.06 +37 01 03.1 19.1   704 – Lincoln Laboratory ETS, New Mexico MPS 234088
2008 01 11.27902 06 11 13.29 +37 00 58.2 19.5   704 – Lincoln Laboratory ETS, New Mexico MPS 234088
2008 01 11.29197 06 11 12.51 +37 00 53.0 19.3   704 – Lincoln Laboratory ETS, New Mexico MPS 234088
2008 01 11.30491 06 11 11.76 +37 00 48.6 19.5   704 – Lincoln Laboratory ETS, New Mexico MPS 234088
2010 02 07.785484 14 43 49.60 -31 19 45.8   C51 – WISE MPS 334566
2010 02 07.917788 14 43 52.90 -31 20 35.7   C51 – WISE MPS 334566
2010 02 08.050093 14 43 56.36 -31 21 23.9   C51 – WISE MPS 334566
2010 02 08.447132 14 44 06.650 -31 23 44.30   C51 – WISE MPS 926570
2010 02 08.645652 14 44 11.44 -31 25 00.5   C51 – WISE MPS 334566
2010 02 08.777956 14 44 14.65 -31 25 50.5   C51 – WISE MPS 334566
2010 02 08.910260 14 44 17.92 -31 26 36.8   C51 – WISE MPS 334566
2010 07 25.052846 13 54 55.95 -28 11 13.2   C51 – WISE MPS 341529
2010 07 25.18515 13 55 00.22 -28 11 00.1   C51 – WISE MPS 341529
2010 07 25.317454 13 55 04.440 -28 10 48.00   C51 – WISE MPS 903290
2010 07 25.449757 13 55 08.72 -28 10 34.6   C51 – WISE MPS 341529
2010 07 25.515845 13 55 10.86 -28 10 27.5   C51 – WISE MPS 341529
2010 07 25.582061 13 55 13.06 -28 10 21.8   C51 – WISE MPS 341529
2010 07 25.648149 13 55 15.20 -28 10 15.6   C51 – WISE MPS 341529
2010 07 26.177365 13 55 32.70 -28 09 24.9   C51 – WISE MPS 341529
2012 06 18.42564 01 19 17.55 +18 43 21.5 20.4 V 691 – Steward Observatory, Kitt Peak-Spacewatch MPS 427697
2012 06 18.43834 01 19 18.73 +18 43 32.0 20.6 V 691 – Steward Observatory, Kitt Peak-Spacewatch MPS 427697
2012 06 18.45103 01 19 19.88 +18 43 42.6 20.5 V 691 – Steward Observatory, Kitt Peak-Spacewatch MPS 427697
2012 09 18.46278 02 57 55.11 +37 50 27.5 19.0 R 926 – Tenagra II Observatory, Nogales MPS 432992
2012 09 18.47662 02 57 55.19 +37 50 35.5 18.9 R 926 – Tenagra II Observatory, Nogales MPS 432992
2012 09 18.49051 02 57 55.26 +37 50 42.9 19.1 R 926 – Tenagra II Observatory, Nogales MPS 432992
2012 10 09.30451 02 53 34.25 +40 25 54.0 18.8   704 – Lincoln Laboratory ETS, New Mexico MPS 437294
2012 10 09.31763 02 53 33.76 +40 25 58.5 18.9   704 – Lincoln Laboratory ETS, New Mexico MPS 437294
2012 10 09.33089 02 53 33.32 +40 26 02.4 18.8   704 – Lincoln Laboratory ETS, New Mexico MPS 437294
2012 10 09.34417 02 53 32.82 +40 26 06.4 18.9   704 – Lincoln Laboratory ETS, New Mexico MPS 437294
2012 10 09.35730 02 53 32.41 +40 26 09.3 19.5   704 – Lincoln Laboratory ETS, New Mexico MPS 437294
2012 10 09.473406 02 53 28.457 +40 26 46.77 18.6 r F51 – Pan-STARRS 1, Haleakala MPS 437294
2012 10 09.485337 02 53 28.013 +40 26 50.43 18.6 r F51 – Pan-STARRS 1, Haleakala MPS 437294
